Easton, MD

7:46 AM EDT on September 26, 2017 (GMT -0400)
Easton / Newnam

Weather History for KESN - August, 2014

Change the Weather History Date:

Saturday, August 2, 2014

  Actual Average Record
Temperature  
Mean Temperature 70 °F -  
Max Temperature 77 °F 87 °F 95 °F (2006)
Min Temperature 64 °F 68 °F 58 °F (1976)
Cooling Degree Days 6    
Growing Degree Days 20 (Base 50)    
Moisture  
Dew Point 68 °F    
Average Humidity 96    
Maximum Humidity 100    
Minimum Humidity 74    
Precipitation  
Precipitation 0.29 in - - ()
Sea Level Pressure  
Sea Level Pressure 30.15 in    
Wind  
Wind Speed 2 mph (East)    
Max Wind Speed 10 mph    
Max Gust Speed -    
Visibility 7 miles    
Events Rain    
Averages and records for this station are not official NWS values.
T = Trace of Precipitation, MM = Missing Value Source: NWS Daily Summary

Daily Weather History Graph

Daily Weather History Graph

Search for Another Location

Airport or City:

Trip Planner

Search our weather history database for the weather conditions in past years. The results will help you decide how hot, cold, wet, or windy it might be!

Date:

Astronomy

Aug. 02, 2014 Rise Set
Actual Time 6:06 AM EDT 8:14 PM EDT
Civil Twilight 5:36 AM EDT 8:43 PM EDT
Nautical Twilight 5:00 AM EDT 9:19 PM EDT
Astronomical Twilight 4:21 AM EDT 9:58 PM EDT
Moon 12:21 PM EDT (8/2) 11:35 PM EDT (8/2)
Length of Visible Light 15h 06m
Length of Day
14h 07m
Waxing Crescent, 36% of the Moon is Illuminated
Aug 2
Waxing Crescent
Aug 3
First Quarter
Aug 10
Full
Aug 17
Last Quarter
Aug 25
New

Hourly Weather History & Observations

Time (EDT) Temp. Dew Point Humidity Pressure Visibility Wind Dir Wind Speed Gust Speed Precip Events Conditions
12:14 AM 68.9 °F 68.9 °F 100% 30.19 in 7.0 mi Calm Calm - N/A Rain Rain
12:34 AM 68.9 °F 68.9 °F 100% 30.19 in 7.0 mi Calm Calm - N/A Rain Light Rain
12:54 AM 68.7 °F 68.7 °F 100% 30.19 in 7.0 mi Calm Calm - 0.02 in Rain Light Rain
1:14 AM 68.5 °F 68.5 °F 100% 30.18 in 7.0 mi Calm Calm - 0.01 in Rain Light Rain
1:34 AM 68.0 °F 68.0 °F 100% 30.18 in 7.0 mi ENE 5.8 mph - N/A Rain Rain
1:54 AM 68.0 °F 68.0 °F 100% 30.18 in 7.0 mi East 3.5 mph - N/A Rain Light Rain
2:14 AM 67.6 °F 67.6 °F 100% 30.17 in 7.0 mi East 5.8 mph - 0.03 in Rain Rain
2:34 AM 67.3 °F 67.3 °F 100% 30.17 in 5.0 mi SE 5.8 mph - 0.07 in Rain Rain
2:54 AM 66.0 °F 66.0 °F 100% 30.17 in 7.0 mi East 6.9 mph - 0.10 in Rain Light Rain
3:14 AM 65.3 °F 65.3 °F 100% 30.17 in 7.0 mi Calm Calm - 0.03 in Rain Light Rain
3:34 AM 64.9 °F 64.9 °F 100% 30.16 in 5.0 mi Calm Calm - 0.06 in Rain Rain
3:54 AM 64.6 °F 64.6 °F 100% 30.15 in 7.0 mi Calm Calm - 0.09 in Rain Light Rain
4:14 AM 64.6 °F 64.6 °F 100% 30.13 in 7.0 mi ENE 8.1 mph - N/A Rain Rain
4:34 AM 64.6 °F 64.6 °F 100% 30.13 in 5.0 mi Calm Calm - 0.01 in Rain Light Rain
4:54 AM 64.4 °F 64.4 °F 100% 30.14 in 7.0 mi Calm Calm - N/A Rain Rain
5:14 AM 65.1 °F 65.1 °F 100% 30.14 in 7.0 mi Calm Calm - N/A   Overcast
5:34 AM 65.3 °F 65.3 °F 100% 30.14 in 7.0 mi Calm Calm - N/A   Overcast
5:50 AM 64.4 °F 64.4 °F 100% 30.13 in 7.0 mi Calm Calm - N/A   Overcast
5:54 AM 65.3 °F 65.3 °F 100% 30.13 in 7.0 mi Calm Calm - N/A   Overcast
6:14 AM 66.2 °F 66.2 °F 100% 30.13 in 7.0 mi Calm Calm - N/A   Overcast
6:20 AM 66.2 °F 66.2 °F 100% 30.13 in 4.0 mi Calm Calm - N/A   Overcast
6:26 AM 65.7 °F 65.7 °F 100% 30.13 in 5.0 mi Calm Calm - N/A   Overcast
6:55 AM 66.2 °F 66.2 °F 100% 30.14 in 4.0 mi North 6.9 mph - N/A   Overcast
8:00 AM 68.0 °F 68.0 °F 100% 30.16 in 5.0 mi North 3.5 mph - N/A   Overcast
8:50 AM 68.0 °F 68.0 °F 100% 30.16 in 10.0 mi NNE 3.5 mph - N/A   Overcast
9:15 AM 68.0 °F 68.0 °F 100% 30.16 in 2.0 mi NNE 3.5 mph - N/A   Overcast
9:55 AM 69.8 °F 69.8 °F 100% 30.16 in 7.0 mi NNE 10.4 mph - N/A   Overcast
10:45 AM 71.6 °F 71.6 °F 100% 30.16 in 7.0 mi NE 5.8 mph - N/A   Overcast
11:47 AM 75.2 °F 71.6 °F 89% 30.17 in 7.0 mi ENE 8.1 mph - N/A   Overcast
12:48 PM 77.0 °F 69.8 °F 78% 30.16 in 7.0 mi NE 10.4 mph - N/A   Overcast
1:50 PM 77.0 °F 68.0 °F 74% 30.16 in 10.0 mi ENE 4.6 mph - N/A   Overcast
2:50 PM 77.0 °F 69.8 °F 78% 30.15 in 10.0 mi East 5.8 mph - N/A   Overcast
3:50 PM 77.0 °F 71.6 °F 83% 30.14 in 10.0 mi SE 4.6 mph - N/A   Overcast
4:45 PM 77.0 °F 71.6 °F 83% 30.13 in 10.0 mi SE 4.6 mph - N/A   Overcast
5:50 PM 77.0 °F 71.6 °F 83% 30.13 in 10.0 mi ESE 4.6 mph - N/A   Mostly Cloudy
6:50 PM 75.2 °F 69.8 °F 83% 30.12 in 10.0 mi ESE 4.6 mph - N/A   Mostly Cloudy
7:50 PM 75.2 °F 71.6 °F 89% 30.12 in 10.0 mi Calm Calm - N/A   Overcast
8:55 PM 73.4 °F 71.6 °F 94% 30.13 in 10.0 mi Calm Calm - N/A   Overcast
10:36 PM 72.1 °F 72.1 °F 100% 30.14 in 10.0 mi Calm Calm - N/A   Overcast
10:56 PM 72.0 °F 72.0 °F 100% 30.14 in 10.0 mi SE 4.6 mph - N/A   Overcast
11:16 PM 72.0 °F 72.0 °F 100% 30.13 in 7.0 mi Calm Calm - 0.01 in Rain Rain
11:36 PM 71.6 °F 71.6 °F 100% 30.14 in 5.0 mi SE 3.5 mph - 0.04 in Rain Rain
11:56 PM 70.9 °F 70.9 °F 100% 30.14 in 10.0 mi SE 3.5 mph - 0.06 in   Drizzle